Simultaneous Nadir Overpasses (SNOs) Predictions

Prediction of SNOs between FY3D and NOAA-19 Satellite Orbit:

Table of predicted SNOs for the next 14.0 days since TLE Epoch: 2/5/2022
Index Date (FY3D) Time (FY3D) Lat,Lon (FY3D) SZA (FY3D ) Date (NOAA-19) Time (NOAA-19) Lat,Lon (NOAA-19) SZA (NOAA-19 ) Distance(km) Time Diff (sec)
1 02/16/2022 09:16:39 77.47, 23.30 90.49 02/16/2022 09:15:34 77.44, 19.74 90.79 85.87 65
2 02/16/2022 10:07:32 -77.79,-170.95 89.10 02/16/2022 10:06:20 -77.83,-170.97 89.04 4.03 72
3 02/16/2022 10:58:19 77.82, -3.79 90.93 02/16/2022 10:57:25 77.80, -3.88 90.94 2.83 54
4 02/16/2022 11:49:04 -77.81, 163.56 89.10 02/16/2022 11:48:20 -77.83, 163.55 89.07 2.02 44
5 02/16/2022 12:39:51 77.84, -29.28 90.93 02/16/2022 12:39:24 77.84, -29.14 90.93 3.23 27
6 02/16/2022 13:30:36 -77.83, 138.07 89.10 02/16/2022 13:30:20 -77.83, 138.07 89.09 0.02 16
7 02/16/2022 14:21:22 77.82, -54.56 90.88 02/16/2022 14:21:24 77.85, -54.62 90.91 3.15 2
8 02/16/2022 15:12:08 -77.86, 112.58 89.09 02/16/2022 15:12:20 -77.84, 112.59 89.11 1.99 12
9 02/16/2022 16:02:54 77.84, -80.05 90.89 02/16/2022 16:03:24 77.85, -80.10 90.89 1.36 30
10 02/16/2022 16:53:40 -77.88, 87.09 89.09 02/16/2022 16:54:20 -77.84, 87.12 89.14 3.99 40
11 02/16/2022 17:44:26 77.87,-105.54 90.89 02/16/2022 17:45:24 77.86,-105.58 90.86 1.44 58
12 02/16/2022 18:35:11 -77.86, 61.81 89.14 02/16/2022 18:36:19 -77.88, 61.85 89.14 3.03 68



Historial Predications of SNOs between FY3D and NOAA-19
